Wisconsin Rapids, WI

1:38 AM CDT on October 17, 2017 (GMT -0500)
Alexander Field South Wood County

Weather History for KISW - February, 2013

Change the Weather History Date:

Monday, February 18, 2013

  Actual Average Record
Temperature  
Mean Temperature 30 °F -  
Max Temperature 39 °F 33 °F 54 °F (1954)
Min Temperature 21 °F 14 °F -17 °F (1958)
Degree Days  
Heating Degree Days 35    
Moisture  
Dew Point 23 °F    
Average Humidity 75    
Maximum Humidity 92    
Minimum Humidity 62    
Precipitation  
Precipitation 0.00 in - - ()
Sea Level Pressure  
Sea Level Pressure 29.59 in    
Wind  
Wind Speed 8 mph (WSW)    
Max Wind Speed 18 mph    
Max Gust Speed 28 mph    
Visibility 8 miles    
Events Rain , Snow    
Averages and records for this station are not official NWS values.
T = Trace of Precipitation, MM = Missing Value Source: NWS Daily Summary

Daily Weather History Graph

Daily Weather History Graph

Search for Another Location

Airport or City:

Trip Planner

Search our weather history database for the weather conditions in past years. The results will help you decide how hot, cold, wet, or windy it might be!

Date:

Astronomy

Feb. 18, 2013 Rise Set
Actual Time 6:54 AM CST 5:32 PM CST
Civil Twilight 6:24 AM CST 6:02 PM CST
Nautical Twilight 5:50 AM CST 6:36 PM CST
Astronomical Twilight 5:17 AM CST 7:10 PM CST
Moon 11:12 AM CST (2/18) 1:40 AM CST (2/18)
Length of Visible Light 11h 38m
Length of Day
10h 38m
First Quarter, 58% of the Moon is Illuminated
Feb 18
First Quarter
Feb 25
Full
Mar 4
Last Quarter
Mar 11
New
Mar 19
First Quarter

Hourly Weather History & Observations

Time (CST) Temp. Windchill Dew Point Humidity Pressure Visibility Wind Dir Wind Speed Gust Speed Precip Events Conditions
12:54 AM 21.9 °F 13.4 °F 12.9 °F 68% 29.88 in 10.0 mi SE 6.9 mph - N/A   Clear
1:54 AM 23.0 °F 13.9 °F 14.0 °F 68% 29.82 in 10.0 mi SE 8.1 mph - N/A   Partly Cloudy
2:54 AM 24.1 °F 16.0 °F 15.1 °F 69% 29.78 in 10.0 mi SE 6.9 mph - N/A   Clear
3:54 AM 23.0 °F 17.0 °F 15.1 °F 72% 29.75 in 10.0 mi SE 4.6 mph - N/A   Clear
4:54 AM 21.9 °F 15.7 °F 15.1 °F 75% 29.73 in 10.0 mi ESE 4.6 mph - N/A   Clear
5:54 AM 23.0 °F 13.9 °F 16.0 °F 74% 29.71 in 10.0 mi ESE 8.1 mph - N/A   Clear
6:54 AM 23.0 °F 14.7 °F 16.0 °F 74% 29.68 in 10.0 mi ESE 6.9 mph - N/A   Clear
7:54 AM 24.1 °F 18.2 °F 17.1 °F 75% 29.68 in 10.0 mi SE 4.6 mph - N/A   Clear
8:54 AM 26.1 °F 20.5 °F 19.0 °F 75% 29.65 in 10.0 mi SE 4.6 mph - N/A   Clear
9:54 AM 30.9 °F 26.2 °F 21.9 °F 69% 29.62 in 10.0 mi SSE 4.6 mph - N/A   Clear
10:54 AM 36.0 °F 30.3 °F 24.1 °F 62% 29.60 in 10.0 mi SSW 6.9 mph - N/A   Clear
11:54 AM 37.9 °F 30.5 °F 26.1 °F 62% 29.58 in 10.0 mi SSW 11.5 mph - N/A   Clear
12:54 PM 37.0 °F 31.0 °F 27.0 °F 67% 29.55 in 10.0 mi SSW 8.1 mph - N/A   Clear
1:54 PM 39.0 °F 33.4 °F 27.0 °F 62% 29.53 in 10.0 mi SSW 8.1 mph - N/A   Clear
2:54 PM 39.0 °F 32.8 °F 28.0 °F 65% 29.54 in 10.0 mi SSW 9.2 mph - N/A   Overcast
3:54 PM 39.0 °F 34.8 °F 28.0 °F 65% 29.53 in 10.0 mi WSW 5.8 mph - N/A   Overcast
4:26 PM 37.4 °F 32.1 °F 28.4 °F 70% 29.50 in 10.0 mi West 6.9 mph - 0.00 in Rain Light Rain
4:46 PM 37.4 °F 32.1 °F 28.4 °F 70% 29.49 in 8.0 mi West 6.9 mph - 0.00 in   Overcast
4:54 PM 36.0 °F 30.3 °F 28.9 °F 76% 29.54 in 9.0 mi West 6.9 mph - 0.00 in   Overcast
5:52 PM 33.8 °F 30.8 °F 30.2 °F 87% 29.50 in 6.0 mi WNW 3.5 mph - 0.00 in   Overcast
5:54 PM 34.0 °F 31.0 °F 30.9 °F 89% 29.54 in 6.0 mi WNW 3.5 mph - 0.00 in   Overcast
6:05 PM 33.8 °F 29.6 °F 30.2 °F 87% 29.51 in 6.0 mi West 4.6 mph - N/A   Overcast
6:54 PM 33.1 °F 28.7 °F 30.9 °F 92% 29.55 in 5.0 mi West 4.6 mph - N/A   Overcast
7:49 PM 33.8 °F 23.5 °F 26.6 °F 75% 29.49 in 5.0 mi NW 16.1 mph 23.0 mph 0.00 in Snow Light Snow
7:54 PM 33.1 °F 23.4 °F 27.0 °F 78% 29.53 in 6.0 mi NW 13.8 mph 23.0 mph 0.00 in Snow Light Snow
8:29 PM 32.0 °F 21.6 °F 26.6 °F 80% 29.48 in 7.0 mi NW 15.0 mph 23.0 mph 0.00 in   Overcast
8:54 PM 30.9 °F 23.5 °F 26.1 °F 82% 29.53 in 5.0 mi WNW 8.1 mph 21.9 mph 0.00 in Snow Light Snow
9:33 PM 30.2 °F 20.2 °F 24.8 °F 80% 29.49 in 6.0 mi WNW 12.7 mph 19.6 mph 0.00 in Snow Light Snow
9:54 PM 28.9 °F 18.6 °F 25.0 °F 85% 29.53 in 5.0 mi WNW 12.7 mph 21.9 mph 0.00 in Snow Light Snow
10:54 PM 24.1 °F 11.0 °F 19.9 °F 84% 29.54 in 6.0 mi WNW 16.1 mph 27.6 mph 0.00 in   Overcast
11:47 PM 21.2 °F 8.9 °F 17.6 °F 86% 29.53 in 5.0 mi WNW 12.7 mph 23.0 mph 0.00 in Rain Light Freezing Rain
11:54 PM 21.9 °F 7.3 °F 18.0 °F 85% 29.57 in 6.0 mi WNW 18.4 mph 25.3 mph 0.00 in Rain Light Freezing Rain